Tracking 30923 objects as of 1-Jul-2025
HD Live streaming from Space Station
objects crossing your sky now

SITRO-AIS-28

Track SITRO-AIS-28 now!
10-day predictions
SITRO-AIS-28 is classified as:


NORAD ID: 59071
Int'l Code: 2024-039U
Perigee: 497.2 km
Apogee: 715.8 km
Inclination: 95.4 °
Period: 96.7 minutes
Semi major axis: 6977 km
RCS: Unknown
Launch date: February 29, 2024
Source: (TBD)
Launch site: VOSTOCHNY COSMODROME (VOSTO)

Uplink (MHz):
Downlink (MHz): 401.350
Beacon (MHz):
Mode: 2k4 GMSK_USP
Call sign:
Status: Unknown

Your satellite tracking list
Your tracking list is empty




NASA's NSSDC Master Catalog

Two Line Element Set (TLE):
1 59071U 24039U   25181.89733294  .00004479  00000-0  37515-3 0  9990
2 59071  95.3770 354.6289 0156670 112.1414 249.6522 14.89535334 72375
Source of the keplerian elements: AFSPC